#timestamp,LO_Frequency,Hit,StdDev 
1644426015.1,286046989.0,Y
1644426035.8,286047001.7,P
1644426055.7,286047001.9,N
1644426075.5,286047000.1,N
1644426095.4,286046996.7,N
1644426115.2,286046997.4,N
1644426135.0,286046996.6,N
1644426135.9,286046996.6,N
1644426155.8,286046993.6,N
1644426175.6,286046992.5,N
1644426195.4,286046991.4,N
1644426215.3,286046988.5,Y
1644426235.1,286046992.6,P
1644426255.9,286046994.8,N
1644426275.7,286046992.3,P
1644426295.5,286046990.5,Y
1644426315.4,286046996.6,P
1644426335.2,286046994.9,P
1644426355.0,286046996.0,P
1644426356.0,286046996.0,Y
1644426375.8,286046996.9,P
1644426395.6,286046997.5,P
1644426415.5,286046995.4,P
1644426435.3,286046998.0,N
1644426455.1,286046996.8,Y
1644426475.9,286047004.3,P
1644426495.7,286047002.8,N
1644426515.6,286047001.5,N
1644426535.4,286046998.3,N
1644426555.2,286046996.7,N
1644426575.1,286046993.3,N
1644426576.0,286046993.3,N
1644426595.8,286046993.5,N
1644426615.6,286046997.8,N
1644426635.5,286046994.4,N
1644426655.3,286046994.8,N
1644426675.2,286046991.7,N
1644426695.9,286046993.7,N
1644426715.7,286046996.8,N
1644426735.6,286047001.9,N
1644426755.4,286047009.5,N
1644426775.2,286047009.7,N
1644426795.1,286047009.3,N
1644426796.0,286047009.3,N
1644426815.8,286047011.2,N
1644426835.7,286047014.1,N
1644426855.5,286047013.8,N
1644426875.3,286047015.5,N
1644426895.2,286047011.6,N
1644426915.0,286047014.7,N
1644426915.9,286047014.7,N
1644426935.7,286047011.3,N
1644426955.6,286047012.1,N
1644426975.4,286047012.3,N
1644426995.3,286047009.9,N
1644427015.1,286047004.7,N
1644427016.0,286047004.7,N
1644427035.8,286047007.4,N
1644427055.7,286047010.4,N
1644427075.5,286047010.4,N
1644427095.3,286047007.8,N
1644427115.2,286047009.2,N
1644427135.0,286047008.5,N
1644427135.9,286047008.5,N
1644427155.8,286047013.6,N
1644427175.6,286047017.2,N
1644427195.4,286047011.9,N
1644427215.3,286047009.4,N
1644427235.1,286047011.7,N
1644427255.9,286047011.7,Y
1644427275.7,286046999.9,P
1644427295.5,286047002.5,N
1644427315.4,286047003.5,N
1644427335.2,286047011.5,N
1644427355.0,286047014.0,Y
1644427355.9,286047014.0,P
1644427375.8,286047006.5,N
1644427395.6,286047012.2,P
1644427415.5,286047011.4,Y
1644427435.3,286046995.3,P
1644427455.1,286046997.8,N
1644427475.9,286047007.5,N
1644427495.7,286047004.6,N
1644427515.5,286047006.4,N
1644427535.4,286047005.6,N
1644427555.2,286047004.2,N
1644427575.1,286047003.9,N
1644427576.0,286047003.9,N
1644427595.8,286047004.7,N
1644427615.6,286047004.0,N
1644427635.5,286047003.2,N
1644427655.3,286046998.6,N
1644427675.2,286046995.5,N
1644427695.9,286047000.7,N
1644427715.7,286046999.0,N
1644427735.6,286046996.7,N
1644427755.4,286047001.0,N
1644427775.2,286047000.6,N
1644427795.1,286047001.8,N
1644427796.0,286047001.8,N
1644427815.8,286047000.8,N
1644427835.7,286046997.9,N
1644427855.5,286046994.8,N
1644427875.3,286046993.1,N
1644427895.2,286046993.0,N
1644427915.9,286046991.3,N
1644427935.7,286046993.8,N
1644427955.6,286046995.3,N
1644427975.4,286047002.2,N
1644427995.2,286047001.9,N
1644428015.1,286047003.4,N
1644428016.0,286047003.4,N
1644428035.8,286047005.1,N
1644428055.7,286047003.4,N
1644428075.5,286047004.2,N
1644428095.3,286047004.3,N
1644428115.2,286047005.2,N
1644428135.0,286047008.4,N
1644428135.9,286047008.4,N
1644428155.8,286047010.4,N
1644428175.6,286047010.8,N
1644428195.4,286047004.3,N
1644428215.3,286047000.9,N
1644428235.1,286046997.9,N
1644428255.8,286046995.6,N
1644428275.7,286047005.6,N
1644428295.5,286047006.7,N
1644428315.4,286047008.8,N
1644428335.2,286047003.4,N
1644428355.0,286047009.0,N
1644428355.9,286047009.0,N
1644428375.8,286047009.3,N
1644428395.6,286047012.5,N
1644428415.4,286047014.5,N
1644428435.3,286047014.2,N
1644428455.1,286047012.7,N
1644428475.9,286047013.5,N
1644428495.7,286047011.0,N
1644428515.5,286047012.8,N
1644428535.4,286047012.8,N
1644428555.2,286047010.8,N
1644428575.0,286047008.8,N
1644428575.9,286047008.8,N
1644428595.8,286047007.9,N
1644428615.6,286047007.1,N
1644428635.5,286047010.0,N
1644428655.3,286047008.3,N
1644428675.1,286047008.1,N
1644428695.9,286047011.2,N
1644428715.7,286047014.3,Y
1644428735.5,286047005.9,P
1644428755.4,286047003.8,N
1644428775.2,286047002.9,N
1644428795.1,286047000.5,N
1644428796.0,286047000.5,N
1644428815.8,286046998.2,N
1644428835.6,286046999.9,N
1644428855.5,286047000.9,N
1644428875.3,286047002.7,N
1644428895.1,286047002.0,N
1644428915.9,286047004.7,N
1644428935.7,286047002.9,N
1644428955.6,286047007.6,N
1644428975.4,286047005.8,N
1644428995.2,286047005.4,N
1644429015.1,286047003.4,N
1644429016.0,286047003.4,N
1644429035.8,286047004.4,N
1644429055.6,286047008.2,Y
1644429075.5,286047003.0,P
1644429095.3,286047004.0,P
1644429115.2,286047001.4,P
1644429135.9,286047003.3,Y
1644429155.7,286047005.0,P
1644429175.6,286047007.4,P
1644429195.4,286047010.3,P
1644429215.3,286047009.9,Y
1644429235.1,286047002.8,P
1644429236.0,286047002.8,N
1644429255.8,286046996.4,N
1644429275.7,286046990.9,N
1644429295.5,286046990.3,N
1644429315.3,286046994.8,N
1644429335.2,286046993.6,N
1644429355.0,286046993.6,N
1644429355.9,286046993.6,N
1644429375.8,286046996.9,N
1644429395.6,286046994.3,N
1644429415.4,286046995.9,N
1644429435.3,286046990.4,N
1644429455.1,286046995.5,N
1644429475.8,286046999.4,N
1644429495.7,286046993.8,N
1644429515.5,286046997.6,N
1644429535.4,286046998.9,N
1644429555.2,286047005.6,N
1644429575.0,286047003.0,N
1644429575.9,286047003.0,N
1644429595.8,286046999.3,N
